Weather History for KHRX - April, 2012

Change the Weather History Date:

Tuesday, April 10, 2012

  Actual Average (KAMA) Record (KAMA)
Temperature  
Mean Temperature 66 °F 55 °F  
Max Temperature 82 °F 70 °F 91 °F (1972)
Min Temperature 50 °F 40 °F 20 °F (1951)
Degree Days  
Heating Degree Days 0 11  
Month to date heating degree days 120  
Since 1 July heating degree days 3929  
Cooling Degree Days 1 0  
Month to date cooling degree days 0  
Year to date cooling degree days 2  
Growing Degree Days 16 (Base 50)    
Moisture  
Dew Point 47 °F    
Average Humidity 60    
Maximum Humidity 94    
Minimum Humidity 20    
Precipitation  
Precipitation 0.00 in 0.04 in 0.79 in (1926)
Month to date precipitation 0.43  
Year to date precipitation 3.10  
Snow  
Snow 0.00 in 0.10 in 7.90 in (1926)
Month to date snowfall 0.4  
Since 1 July snowfall 17.3  
Snow Depth -    
Sea Level Pressure  
Sea Level Pressure 30.11 in    
Wind  
Wind Speed 8 mph (SSW)    
Max Wind Speed 18 mph    
Max Gust Speed 23 mph    
Visibility 9 miles    
Events      
T = Trace of Precipitation, MM = Missing Value Source: NWS Daily Summary

Daily Weather History Graph

Daily Weather History Graph

Search for Another Location

Airport or City:

Trip Planner

Search our weather history database for the weather conditions in past years. The results will help you decide how hot, cold, wet, or windy it might be!

Date:

Astronomy

Apr. 10, 2012 Rise Set
Actual Time 7:23 AM CDT 8:18 PM CDT
Civil Twilight 6:57 AM CDT 8:43 PM CDT
Nautical Twilight 6:27 AM CDT 9:14 PM CDT
Astronomical Twilight 5:55 AM CDT 9:46 PM CDT
Moon 12:05 AM CDT (4/10) 10:19 AM CDT (4/10)
Length of Visible Light 13h 46m
Length of Day
12h 54m
Waning Gibbous, 79% of the Moon is Illuminated
Apr 10
Waning Gibbous
Apr 13
Last Quarter
Apr 21
New
Apr 29
First Quarter
May 5
Full

Hourly Weather History & Observations

Time (CDT) Temp. Dew Point Humidity Pressure Visibility Wind Dir Wind Speed Gust Speed Precip Events Conditions
12:15 AM 59.0 °F 50.0 °F 72% 30.11 in 10.0 mi ESE 9.2 mph - N/A   Clear
12:35 AM 55.4 °F 50.0 °F 82% 30.10 in 10.0 mi ESE 10.4 mph - N/A   Clear
12:55 AM 55.4 °F 50.0 °F 82% 30.10 in 10.0 mi SSE 8.1 mph - N/A   Clear
1:15 AM 55.4 °F 50.0 °F 82% 30.10 in 10.0 mi SSW 5.8 mph - N/A   Clear
1:35 AM 55.4 °F 50.0 °F 82% 30.10 in 10.0 mi SSW 9.2 mph - N/A   Clear
1:55 AM 55.4 °F 50.0 °F 82% 30.10 in 10.0 mi SSW 10.4 mph - N/A   Clear
2:15 AM 55.4 °F 50.0 °F 82% 30.10 in 10.0 mi SSW 8.1 mph - N/A   Clear
2:35 AM 53.6 °F 50.0 °F 88% 30.10 in 10.0 mi SSW 6.9 mph - N/A   Clear
2:55 AM 53.6 °F 50.0 °F 88% 30.10 in 10.0 mi SW 4.6 mph - N/A   Clear
3:15 AM 51.8 °F 50.0 °F 94% 30.10 in 10.0 mi SSW 5.8 mph - N/A   Clear
3:35 AM 51.8 °F 50.0 °F 94% 30.10 in 10.0 mi Calm Calm - N/A   Clear
3:55 AM 51.8 °F 48.2 °F 88% 30.11 in 10.0 mi Calm Calm - N/A   Clear
4:15 AM 51.8 °F 50.0 °F 94% 30.12 in 10.0 mi SE 4.6 mph - N/A   Clear
4:35 AM 50.0 °F 48.2 °F 94% 30.12 in 5.0 mi ESE 5.8 mph - N/A   Clear
4:55 AM 51.8 °F 50.0 °F 94% 30.12 in 5.0 mi South 5.8 mph - N/A   Clear
5:15 AM 51.8 °F 50.0 °F 94% 30.12 in 7.0 mi South 5.8 mph - N/A   Clear
5:35 AM 51.8 °F 48.2 °F 88% 30.13 in 7.0 mi SSW 3.5 mph - N/A   Clear
5:55 AM 50.0 °F 48.2 °F 94% 30.13 in 7.0 mi SW 4.6 mph - N/A   Clear
6:15 AM 51.8 °F 50.0 °F 94% 30.13 in 7.0 mi SW 6.9 mph - N/A   Clear
6:35 AM 51.8 °F 50.0 °F 94% 30.14 in 7.0 mi SW 4.6 mph - N/A   Clear
6:55 AM 50.0 °F 48.2 °F 94% 30.14 in 7.0 mi SW 5.8 mph - N/A   Clear
7:15 AM 51.8 °F 48.2 °F 88% 30.15 in 7.0 mi SSW 5.8 mph - N/A   Clear
7:35 AM 50.0 °F 48.2 °F 94% 30.16 in 7.0 mi SW 4.6 mph - N/A   Clear
7:55 AM 50.0 °F 48.2 °F 94% 30.16 in 5.0 mi West 4.6 mph - N/A   Clear
8:15 AM 50.0 °F 46.4 °F 87% 30.17 in 5.0 mi NW 4.6 mph - N/A   Clear
8:35 AM 50.0 °F 48.2 °F 94% 30.18 in 5.0 mi NNW 3.5 mph - N/A   Clear
8:55 AM 53.6 °F 50.0 °F 88% 30.18 in 7.0 mi Calm Calm - N/A   Clear
9:15 AM 53.6 °F 50.0 °F 88% 30.19 in 10.0 mi Calm Calm - N/A   Clear
9:35 AM 57.2 °F 51.8 °F 82% 30.19 in 10.0 mi West 3.5 mph - N/A   Clear
9:55 AM 59.0 °F 51.8 °F 77% 30.18 in 10.0 mi WSW 4.6 mph - N/A   Clear
10:15 AM 60.8 °F 51.8 °F 72% 30.18 in 10.0 mi SSW 3.5 mph - N/A   Clear
10:35 AM 64.4 °F 53.6 °F 68% 30.18 in 10.0 mi SW 9.2 mph - N/A   Clear
10:55 AM 66.2 °F 53.6 °F 64% 30.18 in 10.0 mi SSW 5.8 mph - N/A   Clear
11:15 AM 68.0 °F 53.6 °F 60% 30.18 in 10.0 mi SSW 5.8 mph - N/A   Clear
11:35 AM 69.8 °F 53.6 °F 56% 30.18 in 10.0 mi SW 5.8 mph - N/A   Clear
11:55 AM 69.8 °F 53.6 °F 56% 30.18 in 10.0 mi WSW 3.5 mph - N/A   Clear
12:15 PM 71.6 °F 53.6 °F 53% 30.17 in 10.0 mi SW 6.9 mph - N/A   Clear
12:35 PM 73.4 °F 51.8 °F 47% 30.17 in 10.0 mi SW 5.8 mph - N/A   Clear
12:55 PM 75.2 °F 51.8 °F 44% 30.16 in 10.0 mi WSW 9.2 mph - N/A   Clear
1:15 PM 77.0 °F 48.2 °F 36% 30.14 in 10.0 mi WSW 6.9 mph - N/A   Clear
1:35 PM 77.0 °F 44.6 °F 32% 30.13 in 10.0 mi SSW 8.1 mph - N/A   Clear
2:15 PM 78.8 °F 42.8 °F 28% 30.12 in 10.0 mi South 15.0 mph - N/A   Clear
2:35 PM 78.8 °F 44.6 °F 30% 30.11 in 10.0 mi South 10.4 mph 18.4 mph N/A   Clear
2:55 PM 80.6 °F 44.6 °F 28% 30.10 in 10.0 mi South 18.4 mph 21.9 mph N/A   Clear
3:15 PM 80.6 °F 42.8 °F 26% 30.09 in 10.0 mi SSE 12.7 mph 18.4 mph N/A   Scattered Clouds
3:35 PM 80.6 °F 41.0 °F 24% 30.08 in 10.0 mi South 12.7 mph 18.4 mph N/A   Scattered Clouds
3:55 PM 80.6 °F 41.0 °F 24% 30.07 in 10.0 mi SSE 13.8 mph 19.6 mph N/A   Clear
4:15 PM 80.6 °F 39.2 °F 23% 30.06 in 10.0 mi SSE 15.0 mph 21.9 mph N/A   Clear
4:35 PM 80.6 °F 41.0 °F 24% 30.06 in 10.0 mi SSE 17.3 mph 21.9 mph N/A   Clear
4:55 PM 82.4 °F 37.4 °F 20% 30.05 in 10.0 mi SSE 13.8 mph 20.7 mph N/A   Clear
5:35 PM 80.6 °F 39.2 °F 23% 30.04 in 10.0 mi South 15.0 mph 23.0 mph N/A   Clear
5:55 PM 80.6 °F 37.4 °F 21% 30.04 in 10.0 mi South 11.5 mph 21.9 mph N/A   Clear
6:15 PM 78.8 °F 41.0 °F 26% 30.04 in 10.0 mi South 15.0 mph 18.4 mph N/A   Clear
6:35 PM 77.0 °F 41.0 °F 28% 30.04 in 10.0 mi SSE 15.0 mph - N/A   Clear
6:55 PM 77.0 °F 42.8 °F 29% 30.04 in 10.0 mi South 15.0 mph 21.9 mph N/A   Clear
7:15 PM 77.0 °F 42.8 °F 29% 30.04 in 10.0 mi SSE 17.3 mph 21.9 mph N/A   Mostly Cloudy
7:35 PM 75.2 °F 42.8 °F 31% 30.04 in 10.0 mi SSE 16.1 mph 20.7 mph N/A   Overcast
7:55 PM 73.4 °F 42.8 °F 33% 30.04 in 10.0 mi South 16.1 mph - N/A   Mostly Cloudy
8:15 PM 73.4 °F 42.8 °F 33% 30.05 in 10.0 mi South 12.7 mph - N/A   Scattered Clouds
8:35 PM 71.6 °F 42.8 °F 35% 30.07 in 10.0 mi South 11.5 mph - N/A   Clear
8:55 PM 71.6 °F 44.6 °F 38% 30.08 in 10.0 mi South 9.2 mph - N/A   Clear
9:15 PM 69.8 °F 44.6 °F 40% 30.08 in 10.0 mi SSE 11.5 mph - N/A   Clear
9:35 PM 69.8 °F 46.4 °F 43% 30.09 in 10.0 mi SSE 5.8 mph - N/A   Clear
9:55 PM 69.8 °F 46.4 °F 43% 30.09 in 10.0 mi SSE 13.8 mph - N/A   Clear
10:15 PM 69.8 °F 46.4 °F 43% 30.10 in 10.0 mi South 10.4 mph - N/A   Clear
10:35 PM 69.8 °F 46.4 °F 43% 30.10 in 10.0 mi South 10.4 mph 16.1 mph N/A   Clear
10:55 PM 68.0 °F 46.4 °F 46% 30.10 in 10.0 mi SSW 9.2 mph - N/A   Clear
11:15 PM 66.2 °F 46.4 °F 49% 30.11 in 10.0 mi South 6.9 mph - N/A   Scattered Clouds
11:35 PM 66.2 °F 46.4 °F 49% 30.13 in 10.0 mi West 16.1 mph 19.6 mph N/A   Mostly Cloudy
11:55 PM 64.4 °F 50.0 °F 59% 30.14 in 10.0 mi West 13.8 mph 19.6 mph N/A   Scattered Clouds